Terminal Aerodrome Forecast
Issued by NWS

Home | Current Version | Previous Version | Graphics & Text | Print | Product List | Glossary On
Versions: 1 2 3 4 5 6 7 8 9 10 11 12 13 14 15 16
000
FTUS42 KMHX 291100
TAFISO
TAF
KISO 291140Z 2912/3012 05004KT P6SM SCT060
     FM291800 08007KT P6SM BKN040
     FM300100 12003KT P6SM SCT040
     FM300700 00000KT 4SM BR SCT003
      AMD LTD TO CLD VIS AND WIND=

USA.gov is the U.S. government's official web portal to all federal, state and local government web resources and services.